Simultaneous Nadir Overpasses (SNOs) Predictions

Prediction of SNOs between METOP-B and NOAA-19 Satellite Orbit:

Table of predicted SNOs for the next 14.0 days since TLE Epoch: 2/8/2013
Index Date (METOP-B) Time (METOP-B) Lat,Lon (METOP-B) SZA (METOP-B ) Date (NOAA-19) Time (NOAA-19) Lat,Lon (NOAA-19) SZA (NOAA-19 ) Distance(km) Time Diff (sec)
1 02/13/2013 20:42:27 -73.21, 42.54 93.54 02/13/2013 20:41:14 -73.22, 42.56 93.52 1.42 73
2 02/13/2013 21:33:08 73.18,-150.19 86.43 02/13/2013 21:32:15 73.18,-150.11 86.44 2.49 53
3 02/13/2013 22:23:49 -73.19, 17.16 93.58 02/13/2013 22:23:18 -73.18, 17.13 93.58 1.41 31
4 02/13/2013 23:14:30 73.16,-175.57 86.39 02/13/2013 23:14:19 73.14,-175.55 86.37 1.83 11
5 02/14/2013 00:05:12 -73.12, -8.33 93.67 02/14/2013 00:05:22 -73.14, -8.30 93.65 2.44 10
6 02/14/2013 00:55:53 73.09, 158.94 86.30 02/14/2013 00:56:23 73.10, 159.02 86.31 3.17 30
7 02/14/2013 01:46:34 -73.10, -33.71 93.71 02/14/2013 01:47:26 -73.10, -33.73 93.72 0.72 52
8 02/14/2013 02:37:15 73.07, 133.56 86.26 02/14/2013 02:38:27 73.07, 133.59 86.24 1.06 72




NCC Satellite Simultaneous Nadir Overpasses (SNOs) Prediction Service
